RH
53 55 56 54 52 52 50 50 50 49 49 47 44 43 40 38 38 36 35 35 36 38 38 37 38 40 42 43 42 41 40 40 41 39 39 39 39 40 41 42 43 44
52 54 57 58 56 55 53 53 53 51 50 50 47 45 43 40 39 37 35 34 36 37 37 36 36 38 42 43 42 43 43 43 42 40 39 39 37 38 38 39 41 41
51 53 56 58 59 58 56 57 57 54 52 51 49 47 45 43 42 41 37 35 35 36 35 36 36 36 38 38 38 41 43 44 44 41 38 40 39 37 37 38 39 40
49 51 53 57 59 57 57 58 59 57 54 53 51 50 49 47 46 45 43 39 37 38 37 36 37 36 35 35 34 36 37 37 40 40 39 41 42 39 37 37 38 41
48 49 52 56 59 58 57 59 60 59 58 55 54 54 53 50 48 48 48 46 42 42 41 39 39 38 36 34 34 34 34 33 34 34 35 39 41 41 39 37 37 40
44 49 52 55 58 58 59 60 62 62 60 57 56 56 54 52 51 51 51 51 49 47 45 43 42 41 39 35 34 34 35 34 33 32 31 32 36 39 40 38 37 38
39 46 50 53 56 59 59 60 62 63 61 58 58 58 56 54 54 53 54 56 55 53 50 46 44 44 41 38 35 35 36 36 35 34 32 31 33 36 38 39 38 38
36 42 47 49 52 55 57 58 59 60 59 58 58 59 59 56 56 57 58 58 59 58 54 50 47 45 44 42 39 38 37 37 37 36 35 35 34 35 37 38 38 36
36 38 42 45 47 49 52 52 54 55 57 57 58 58 59 58 58 59 58 58 58 58 56 53 50 47 45 45 44 42 41 40 39 38 37 36 36 37 38 38 38 37
37 36 38 40 41 44 47 48 49 51 54 56 57 57 57 58 59 59 59 58 57 56 55 54 53 49 47 47 46 45 44 43 43 42 41 39 38 37 39 40 41 39
37 35 35 35 37 40 42 43 46 47 49 52 55 55 55 57 61 61 61 60 58 57 56 55 53 52 50 50 49 47 47 47 46 45 45 45 42 40 40 41 43 43
38 37 35 34 35 37 38 39 41 43 45 47 50 51 52 55 58 60 60 59 58 58 57 56 56 56 55 54 51 49 50 50 48 46 45 45 45 44 43 44 45 46
40 39 39 38 37 38 39 38 39 40 42 44 45 47 49 51 54 55 56 56 56 57 59 60 60 60 60 58 55 52 51 51 50 48 46 44 44 45 46 45 46 47
44 42 42 42 42 42 42 41 40 40 41 42 43 44 46 48 51 51 51 52 53 54 57 59 60 62 62 61 59 56 54 52 51 50 48 45 44 45 44 44 45 46
54 49 46 47 49 51 50 47 45 44 43 43 43 43 45 46 48 49 49 50 51 52 54 55 56 58 60 61 60 58 55 53 52 52 51 49 48 49 50 50 48 46
64 60 57 56 57 60 62 59 53 50 48 46 46 46 47 46 46 47 48 49 51 52 53 53 53 54 57 58 58 57 56 55 53 53 53 53 53 55 57 57 55 51
73 72 70 67 66 68 69 65 58 55 52 50 50 50 50 49 47 47 48 50 52 53 53 53 53 53 54 56 55 55 56 56 55 53 53 53 54 56 58 60 61 59
79 78 76 73 75 79 78 70 61 59 58 56 54 53 51 50 49 49 50 52 53 54 54 54 54 55 54 55 55 55 56 57 57 56 54 54 54 55 57 59 61 62
83 82 79 78 80 84 85 80 73 68 66 59 54 54 54 52 51 49 48 49 51 52 53 55 56 57 57 56 56 56 57 58 58 58 58 58 56 56 56 57 59 62
85 85 84 83 83 83 86 86 81 76 73 63 53 53 54 54 53 53 51 49 48 48 49 51 52 54 56 58 59 59 59 59 59 59 59 60 60 60 59 59 60 62
84 83 83 84 83 82 83 83 79 77 76 70 62 58 60 61 61 61 59 56 52 50 48 48 48 50 53 55 58 60 61 61 60 58 57 57 59 61 61 61 63 64
87 86 85 84 82 81 81 80 80 80 79 77 73 71 72 75 75 73 68 64 61 58 55 55 54 55 55 54 55 56 58 60 61 61 59 56 57 59 61 62 64 65
90 90 88 86 83 80 80 80 81 81 79 80 81 81 82 84 85 83 78 72 68 64 62 63 64 65 66 65 64 63 62 62 65 67 65 59 54 54 57 60 62 62
90 91 90 88 84 81 81 81 82 82 82 82 84 86 86 87 87 85 80 76 73 70 69 70 71 73 75 77 78 77 75 73 71 71 71 67 62 59 60 62 64 63
87 88 88 87 83 81 80 80 81 82 84 85 87 90 91 91 90 86 81 78 78 77 75 74 74 75 78 81 83 84 85 84 80 76 74 74 73 72 71 71 71 70
86 85 85 84 83 82 80 80 80 80 81 83 87 91 93 92 89 85 81 79 81 81 80 79 79 81 82 85 86 86 87 89 88 83 79 78 79 80 80 79 79 78